AC4AG Weather Reports


time (UTC)temp
C
wind
direction
speed
KPH
gust
KPH
rain 1hr
cm
rain 24hr
cm
rain mn
cm
humidity
%
barometer
mb
20260906040219 21 161 0.0 0.0 0.00 0.00 0.00 99 1011.6
20260906035715 21 147 0.0 0.0 0.00 0.00 0.00 99 1011.7
20260906035211 21 147 0.0 0.0 0.00 0.00 0.00 99 1012.1
20260906034710 21 143 0.0 0.0 0.00 0.00 0.00 99 1011.8
20260906034205 21 143 0.0 0.0 0.00 0.00 0.00 99 1011.9
20260906033701 21 130 0.0 0.0 0.00 0.00 0.00 99 1012.0
20260906033201 21 129 0.0 0.0 0.00 0.00 0.00 99 1012.1
20260906032657 21 129 0.0 0.0 0.00 0.00 0.00 99 1012.0
20260906032152 21 149 0.0 0.0 0.00 0.00 0.00 99 1011.9
20260906031647 21 149 0.0 0.0 0.00 0.00 0.00 99 1012.0
20260906031143 22 148 0.0 0.0 0.00 0.00 0.00 99 1011.9
20260906030642 22 154 0.0 0.0 0.00 0.00 0.00 99 1011.8
20260906030138 22 127 0.0 0.0 0.00 0.00 0.00 99 1011.9
20260906025637 22 120 0.0 0.0 0.00 0.00 0.00 99 1011.9
20260906025136 21 103 0.0 0.0 0.00 0.00 0.00 99 1011.8
20260906024630 21 148 0.0 0.0 0.00 0.00 0.00 99 1011.8
20260906024125 21 148 0.0 0.0 0.00 0.00 0.00 99 1011.9
20260906023621 22 139 0.0 0.0 0.00 0.00 0.00 99 1012.1
20260906023120 22 153 0.0 0.0 0.00 0.00 0.00 99 1012.0
20260906022616 22 152 0.0 0.0 0.00 0.00 0.00 99 1011.8
20260906022112 22 163 0.0 0.0 0.00 0.00 0.00 99 1011.4
20260906021607 22 125 0.0 0.0 0.00 0.00 0.00 99 1011.5
20260906021106 22 128 0.0 0.0 0.00 0.00 0.00 99 1011.5
20260906020605 22 140 0.0 0.0 0.00 0.00 0.00 99 1011.4
20260906020100 22 153 0.0 0.0 0.00 0.00 0.00 99 1011.4
20260906015600 22 99 1.6 1.6 0.00 0.00 0.00 99 1011.4
20260906015059 22 98 1.6 1.6 0.00 0.00 0.00 99 1011.2
20260906014554 22 79 1.6 3.2 0.00 0.00 0.00 99 1011.3
20260906014050 22 146 0.0 0.0 0.00 0.00 0.00 99 1011.5
20260906013545 22 148 0.0 0.0 0.00 0.00 0.00 99 1011.6
20260906013041 22 148 0.0 0.0 0.00 0.00 0.00 99 1011.5
20260906012535 22 141 0.0 0.0 0.00 0.00 0.00 99 1011.3
20260906012035 22 148 0.0 0.0 0.00 0.00 0.00 99 1011.2
20260906011531 22 149 0.0 1.6 0.00 0.00 0.00 97 1011.3
20260906011031 22 51 1.6 3.2 0.00 0.00 0.00 97 1011.2
20260906010526 22 130 0.0 0.0 0.00 0.00 0.00 97 1011.2
20260906010023 22 102 0.0 0.0 0.00 0.00 0.00 97 1011.2
20260906005521 22 123 0.0 0.0 0.00 0.00 0.00 98 1011.0
20260906005020 22 116 0.0 0.0 0.00 0.00 0.00 98 1011.2
20260906004515 22 87 1.6 3.2 0.00 0.00 0.00 98 1011.2
20260906004010 22 133 0.0 0.0 0.00 0.00 0.00 97 1011.2
20260906003505 22 135 0.0 0.0 0.00 0.00 0.00 98 1011.1
20260906003001 22 141 0.0 0.0 0.00 0.00 0.00 99 1011.1
20260906002500 22 132 0.0 0.0 0.00 0.00 0.00 99 1011.5
20260906001955 22 146 0.0 0.0 0.00 0.00 0.00 99 1011.1
20260906001451 22 167 0.0 0.0 0.00 0.00 0.00 98 1011.3
20260906000946 22 127 0.0 0.0 0.00 0.00 0.00 98 1011.1
20260906000442 22 304 1.6 3.2 0.00 0.00 0.00 98 1011.3
20260905235936 23 217 3.2 4.8 0.00 0.00 0.00 97 1011.6
20260905235436 23 154 0.0 1.6 0.00 0.00 0.00 94 1011.6
20260905234931 23 93 1.6 1.6 0.00 0.00 0.00 93 1011.7
20260905234426 23 151 0.0 3.2 0.00 0.00 0.00 92 1011.5
20260905233921 23 151 1.6 3.2 0.00 0.00 0.00 93 1011.8
20260905233416 23 144 0.0 0.0 0.00 0.00 0.00 91 1011.7
20260905232915 23 147 0.0 1.6 0.00 0.00 0.00 91 1011.7
20260905232411 23 183 1.6 1.6 0.00 0.00 0.00 90 1011.6
20260905231906 23 189 1.6 3.2 0.00 0.00 0.00 90 1011.5
20260905231402 23 211 1.6 3.2 0.00 0.00 0.00 89 1011.4
20260905230859 23 252 3.2 3.2 0.00 0.00 0.00 89 1011.2
20260905230356 23 191 1.6 3.2 0.00 0.00 0.00 88 1011.7
20260905225855 25 35 8.0 9.7 0.00 0.00 0.00 81 1011.7
20260905225350 26 325 8.0 14.5 0.00 0.00 0.00 76 1011.8
20260905224846 28 299 9.7 14.5 0.00 0.00 0.00 73 1012.2
20260905224341 30 322 14.5 24.1 0.00 0.00 0.00 68 1011.9
20260905223836 31 41 3.2 9.7 0.00 0.00 0.00 64 1011.7
20260905223334 31 331 3.2 4.8 0.00 0.00 0.00 62 1011.7
20260905222834 31 36 4.8 8.0 0.00 0.00 0.00 61 1011.0
20260905222333 32 354 1.6 4.8 0.00 0.00 0.00 61 1011.3
20260905221829 32 194 3.2 3.2 0.00 0.00 0.00 61 1011.3
20260905221326 32 33 3.2 3.2 0.00 0.00 0.00 60 1011.2
20260905220821 33 46 3.2 8.0 0.00 0.00 0.00 58 1011.3
20260905220317 33 108 0.0 4.8 0.00 0.00 0.00 57 1011.2
20260905215816 33 160 1.6 8.0 0.00 0.00 0.00 57 1011.2
20260905215312 33 171 1.6 1.6 0.00 0.00 0.00 56 1011.2
20260905214808 33 175 3.2 8.0 0.00 0.00 0.00 58 1011.0
20260905214304 33 324 3.2 4.8 0.00 0.00 0.00 58 1011.0
20260905213758 33 187 3.2 3.2 0.00 0.00 0.00 58 1011.1
20260905213255 33 163 3.2 4.8 0.00 0.00 0.00 58 1011.3
20260905212750 33 162 0.0 4.8 0.00 0.00 0.00 58 1011.1
20260905212249 33 129 0.0 1.6 0.00 0.00 0.00 58 1011.1
20260905211749 32 67 1.6 3.2 0.00 0.00 0.00 59 1011.2
20260905211244 32 178 1.6 1.6 0.00 0.00 0.00 62 1011.3
20260905210742 32 90 4.8 8.0 0.00 0.00 0.00 61 1011.3
20260905210240 32 139 3.2 8.0 0.00 0.00 0.00 60 1011.2
20260905205739 32 57 3.2 4.8 0.00 0.00 0.00 60 1011.4
20260905205234 32 231 4.8 4.8 0.00 0.00 0.00 60 1011.2
20260905204733 33 181 1.6 9.7 0.00 0.00 0.00 59 1011.2
20260905204229 33 142 3.2 9.7 0.00 0.00 0.00 59 1011.4
20260905203729 32 23 3.2 8.0 0.00 0.00 0.00 59 1011.4
20260905203224 32 242 4.8 8.0 0.00 0.00 0.00 61 1011.4
20260905202720 32 210 4.8 9.7 0.00 0.00 0.00 61 1011.6
20260905202215 32 208 8.0 11.3 0.00 0.00 0.00 61 1011.5
20260905201711 32 158 3.2 8.0 0.00 0.00 0.00 60 1011.6
20260905201210 32 259 3.2 8.0 0.00 0.00 0.00 60 1011.6
20260905200706 32 120 3.2 4.8 0.00 0.00 0.00 59 1011.8
20260905200201 32 255 6.4 8.0 0.00 0.00 0.00 61 1011.9
20260905195659 32 253 12.9 14.5 0.00 0.00 0.00 60 1012.0
20260905195154 32 273 11.3 11.3 0.00 0.00 0.00 60 1012.2
20260905194650 32 163 0.0 4.8 0.00 0.00 0.00 60 1012.0
20260905194150 32 60 8.0 9.7 0.00 0.00 0.00 61 1012.3
20260905193649 32 52 1.6 4.8 0.00 0.00 0.00 59 1012.2
20260905193144 32 41 1.6 3.2 0.00 0.00 0.00 61 1012.4
20260905192640 32 251 3.2 4.8 0.00 0.00 0.00 60 1012.4
20260905192137 31 54 4.8 8.0 0.00 0.00 0.00 61 1012.6
20260905191636 31 51 4.8 4.8 0.00 0.00 0.00 60 1012.3
20260905191134 31 214 8.0 11.3 0.00 0.00 0.00 62 1012.6
20260905190633 31 213 4.8 4.8 0.00 0.00 0.00 62 1012.6
20260905190132 31 182 4.8 9.7 0.00 0.00 0.00 63 1012.9
20260905185631 31 234 4.8 9.7 0.00 0.00 0.00 63 1012.8
20260905185126 30 148 4.8 4.8 0.00 0.00 0.00 64 1013.0
20260905184620 30 212 6.4 9.7 0.00 0.00 0.00 64 1013.1
20260905184119 31 180 4.8 8.0 0.00 0.00 0.00 64 1013.2
20260905183619 31 167 3.2 9.7 0.00 0.00 0.00 64 1013.1
20260905183114 31 147 1.6 4.8 0.00 0.00 0.00 64 1013.4
20260905182614 31 133 0.0 3.2 0.00 0.00 0.00 64 1013.5
20260905182114 30 74 4.8 4.8 0.00 0.00 0.00 64 1013.4
20260905181614 30 34 6.4 9.7 0.00 0.00 0.00 65 1013.5
20260905181113 30 92 3.2 11.3 0.00 0.00 0.00 66 1013.6
20260905180608 30 128 1.6 4.8 0.00 0.00 0.00 67 1013.9
20260905180103 30 55 6.4 9.7 0.00 0.00 0.00 66 1013.8
20260905175602 30 54 4.8 4.8 0.00 0.00 0.00 67 1013.5
20260905175058 30 58 3.2 9.7 0.00 0.00 0.00 66 1013.9
20260905174553 29 103 3.2 4.8 0.00 0.00 0.00 69 1013.6
20260905174048 30 92 4.8 8.0 0.00 0.00 0.00 68 1014.0
20260905173545 29 109 0.0 8.0 0.00 0.00 0.00 69 1014.1
20260905173040 28 51 3.2 8.0 0.00 0.00 0.00 69 1014.1
20260905172539 30 46 8.0 11.3 0.00 0.00 0.00 69 1014.2
20260905172034 29 100 3.2 8.0 0.00 0.00 0.00 68 1014.1
20260905171531 29 172 3.2 4.8 0.00 0.00 0.00 69 1014.3
20260905171026 29 59 6.4 8.0 0.00 0.00 0.00 69 1014.5
20260905170523 28 169 3.2 9.7 0.00 0.00 0.00 71 1014.4
20260905170018 29 85 3.2 9.7 0.00 0.00 0.00 69 1014.6
20260905165513 29 98 4.8 12.9 0.00 0.00 0.00 69 1014.4
20260905165008 29 156 3.2 8.0 0.00 0.00 0.00 70 1014.7
20260905164508 28 100 3.2 9.7 0.00 0.00 0.00 71 1014.4
20260905164002 28 138 3.2 8.0 0.00 0.00 0.00 74 1014.7
20260905163459 28 38 8.0 9.7 0.00 0.00 0.00 73 1015.1
20260905162954 28 118 1.6 8.0 0.00 0.00 0.00 73 1015.0
20260905162450 28 92 1.6 8.0 0.00 0.00 0.00 73 1014.9
20260905161944 28 194 6.4 8.0 0.00 0.00 0.00 73 1014.8
20260905161443 28 105 4.8 9.7 0.00 0.00 0.00 75 1014.6
20260905160942 28 56 4.8 12.9 0.00 0.00 0.00 74 1014.6
20260905160436 28 114 4.8 8.0 0.00 0.00 0.00 76 1014.9
20260905155935 27 92 4.8 4.8 0.00 0.00 0.00 78 1014.9
20260905155430 28 155 6.4 8.0 0.00 0.00 0.00 77 1015.1
20260905154929 27 111 3.2 11.3 0.00 0.00 0.00 81 1014.7
20260905154424 27 87 1.6 8.0 0.00 0.00 0.00 81 1014.6
20260905153920 27 43 8.0 12.9 0.00 0.00 0.00 78 1014.9
20260905153416 27 45 4.8 11.3 0.00 0.00 0.00 78 1014.7
20260905152916 27 144 4.8 9.7 0.00 0.00 0.00 81 1015.0
20260905152415 26 86 4.8 11.3 0.00 0.00 0.00 82 1014.9
20260905151910 26 57 4.8 12.9 0.00 0.00 0.00 83 1015.1
20260905151406 26 25 11.3 14.5 0.00 0.00 0.00 82 1015.2
20260905150901 26 32 4.8 8.0 0.00 0.00 0.00 85 1015.2
20260905150400 26 8 9.7 14.5 0.00 0.00 0.00 85 1015.2
20260905145857 26 53 14.5 16.1 0.00 0.00 0.00 84 1015.4
20260905145352 25 46 4.8 11.3 0.00 0.00 0.00 88 1015.2
20260905144851 25 14 8.0 12.9 0.00 0.00 0.00 86 1015.1
20260905144347 25 54 4.8 11.3 0.00 0.00 0.00 86 1015.2
20260905143845 26 69 16.1 17.7 0.00 0.00 0.00 85 1015.2
20260905143340 26 27 8.0 12.9 0.00 0.00 0.00 86 1015.1
20260905142839 26 50 8.0 11.3 0.00 0.00 0.00 89 1015.3
20260905142338 26 149 4.8 14.5 0.00 0.00 0.00 88 1015.2
20260905141834 26 12 8.0 12.9 0.00 0.00 0.00 89 1015.0
20260905141329 27 121 0.0 3.2 0.00 0.00 0.00 89 1014.8
20260905140825 27 40 3.2 3.2 0.00 0.00 0.00 88 1014.6
20260905140325 26 140 0.0 1.6 0.00 0.00 0.00 90 1014.5
20260905135824 26 43 3.2 3.2 0.00 0.00 0.00 90 1014.5
20260905135320 26 120 0.0 1.6 0.00 0.00 0.00 91 1014.5
20260905134815 26 162 1.6 4.8 0.00 0.00 0.00 91 1014.5
20260905134315 25 126 0.0 1.6 0.00 0.00 0.00 93 1014.6
20260905133814 25 62 3.2 4.8 0.00 0.00 0.00 96 1014.7
20260905133310 25 116 0.0 0.0 0.00 0.00 0.00 98 1014.4
20260905132809 23 139 0.0 0.0 0.00 0.00 0.00 99 1014.5
20260905132306 23 150 0.0 0.0 0.00 0.00 0.00 99 1014.7
20260905131759 23 140 0.0 0.0 0.00 0.00 0.00 99 1014.4
20260905131255 23 154 0.0 0.0 0.00 0.00 0.00 99 1014.5
20260905130755 23 180 0.0 0.0 0.00 0.00 0.00 99 1014.5
20260905130254 23 141 0.0 0.0 0.00 0.00 0.00 99 1014.7
20260905125749 23 156 0.0 0.0 0.00 0.00 0.00 99 1014.9
20260905125244 22 145 0.0 0.0 0.00 0.00 0.00 99 1014.8
20260905124741 22 147 0.0 0.0 0.00 0.00 0.00 99 1014.7
20260905124237 22 135 0.0 0.0 0.00 0.00 0.00 99 1014.7
20260905123731 22 149 0.0 0.0 0.00 0.00 0.00 99 1014.6
20260905123229 22 133 0.0 0.0 0.00 0.00 0.00 99 1014.3
20260905122728 22 125 0.0 0.0 0.00 0.00 0.00 99 1014.4
20260905122222 22 121 0.0 0.0 0.00 0.00 0.00 99 1014.5
20260905121718 22 125 0.0 0.0 0.00 0.00 0.00 99 1014.3
20260905121214 21 152 0.0 0.0 0.00 0.00 0.00 99 1014.3
20260905120713 21 152 0.0 0.0 0.00 0.00 0.00 99 1014.2
20260905120208 21 152 0.0 0.0 0.00 0.00 0.00 99 1014.3
20260905115708 21 153 0.0 0.0 0.00 0.00 0.00 99 1014.1
20260905115202 21 154 0.0 0.0 0.00 0.00 0.00 99 1014.1
20260905114702 21 154 0.0 0.0 0.00 0.00 0.00 99 1014.0
20260905114200 21 123 0.0 0.0 0.00 0.00 0.00 99 1014.0
20260905113655 21 130 0.0 0.0 0.00 0.00 0.00 99 1014.1
20260905113150 21 143 0.0 0.0 0.00 0.00 0.00 99 1014.0
20260905112650 21 143 0.0 0.0 0.00 0.00 0.00 99 1013.9
20260905112146 21 140 0.0 1.6 0.00 0.00 0.00 99 1013.9
20260905111645 21 124 0.0 1.6 0.00 0.00 0.00 99 1013.9
20260905111145 21 130 0.0 0.0 0.00 0.00 0.00 99 1014.0
20260905110644 21 125 0.0 0.0 0.00 0.00 0.00 99 1014.1
20260905110139 21 116 0.0 0.0 0.00 0.00 0.00 99 1014.0
20260905105634 21 131 0.0 0.0 0.00 0.00 0.00 99 1013.8
20260905105133 21 125 0.0 0.0 0.00 0.00 0.00 99 1013.9
20260905104629 21 125 0.0 0.0 0.00 0.00 0.00 99 1013.8
20260905104124 21 125 0.0 0.0 0.00 0.00 0.00 99 1013.6
20260905103619 21 121 0.0 0.0 0.00 0.00 0.00 99 1013.6
20260905103115 21 118 0.0 0.0 0.00 0.00 0.00 99 1013.5
20260905102611 21 116 0.0 0.0 0.00 0.00 0.00 99 1013.6
20260905102108 21 98 0.0 1.6 0.00 0.00 0.00 99 1013.6
20260905101605 21 86 1.6 3.2 0.00 0.00 0.00 99 1013.5
20260905101104 21 109 0.0 0.0 0.00 0.00 0.00 99 1013.4
20260905100600 21 124 0.0 0.0 0.00 0.00 0.00 99 1013.3
20260905100055 21 106 1.6 1.6 0.00 0.00 0.00 99 1013.3
20260905095549 21 75 0.0 0.0 0.00 0.00 0.00 99 1013.1
20260905095045 21 127 0.0 0.0 0.00 0.00 0.00 99 1013.2
20260905094540 21 127 0.0 0.0 0.00 0.00 0.00 99 1013.1
20260905094039 21 127 0.0 0.0 0.00 0.00 0.00 99 1013.4
20260905093538 21 127 0.0 0.0 0.00 0.00 0.00 99 1013.2
20260905093036 21 99 0.0 0.0 0.00 0.00 0.00 99 1013.1
20260905092535 21 92 0.0 0.0 0.00 0.00 0.00 99 1013.1
20260905092032 21 131 0.0 0.0 0.00 0.00 0.00 99 1013.0
20260905091530 21 131 0.0 0.0 0.00 0.00 0.00 99 1013.1
20260905091025 21 131 0.0 0.0 0.00 0.00 0.00 99 1013.2
20260905090524 21 131 0.0 0.0 0.00 0.00 0.00 99 1013.0
20260905090020 21 114 0.0 0.0 0.00 0.00 0.00 99 1013.1
20260905085518 21 103 0.0 0.0 0.00 0.00 0.00 99 1012.9
20260905085015 21 121 0.0 0.0 0.00 0.00 0.00 99 1012.9
20260905084509 21 126 0.0 0.0 0.00 0.00 0.00 99 1013.1
20260905084009 21 126 0.0 0.0 0.00 0.00 0.00 99 1013.0
20260905083504 21 111 0.0 0.0 0.00 0.00 0.00 99 1012.7
20260905083000 21 96 0.0 0.0 0.00 0.00 0.00 99 1012.8
20260905082455 21 145 0.0 0.0 0.00 0.00 0.00 99 1012.9
20260905081951 21 144 0.0 0.0 0.00 0.00 0.00 99 1013.0
20260905081445 21 143 0.0 0.0 0.00 0.00 0.00 99 1012.9
20260905080945 21 126 0.0 0.0 0.00 0.00 0.00 99 1013.0
20260905080439 21 139 0.0 0.0 0.00 0.00 0.00 99 1013.1
20260905075938 21 123 0.0 0.0 0.00 0.00 0.00 99 1013.2
20260905075433 21 124 0.0 0.0 0.00 0.00 0.00 99 1013.2
20260905074932 21 137 0.0 0.0 0.00 0.00 0.00 99 1013.2
20260905074428 21 131 0.0 0.0 0.00 0.00 0.00 99 1013.4
20260905073923 21 131 0.0 0.0 0.00 0.00 0.00 99 1013.4
20260905073418 21 131 0.0 0.0 0.00 0.00 0.00 99 1013.3
20260905072914 21 131 0.0 0.0 0.00 0.00 0.00 99 1013.5
20260905072409 22 129 0.0 0.0 0.00 0.00 0.00 99 1013.5
20260905071904 22 128 0.0 0.0 0.00 0.00 0.00 99 1013.5
20260905071355 22 128 0.0 0.0 0.00 0.00 0.00 99 1013.5
20260905070849 22 116 0.0 0.0 0.00 0.00 0.00 99 1013.8
20260905070345 22 134 0.0 0.0 0.00 0.00 0.00 99 1013.9
20260905065844 22 119 0.0 0.0 0.00 0.00 0.00 99 1013.8
20260905065342 22 123 0.0 0.0 0.00 0.00 0.00 99 1013.8
20260905064838 22 132 0.0 0.0 0.00 0.00 0.00 99 1013.8
20260905064334 22 132 0.0 0.0 0.00 0.00 0.00 99 1014.0
20260905063832 22 121 0.0 0.0 0.00 0.00 0.00 99 1014.0
20260905063328 22 127 0.0 0.0 0.00 0.00 0.00 99 1014.2
20260905062825 22 128 0.0 0.0 0.00 0.00 0.00 99 1014.1
20260905062319 22 128 0.0 0.0 0.00 0.00 0.00 99 1014.1
20260905061814 22 127 0.0 0.0 0.00 0.00 0.00 99 1014.1
20260905061313 22 136 0.0 0.0 0.00 0.00 0.00 99 1014.4
20260905060808 22 136 0.0 0.0 0.00 0.00 0.00 99 1014.3
20260905060305 22 128 0.0 0.0 0.00 0.00 0.00 99 1014.3
20260905055803 22 113 0.0 0.0 0.00 0.00 0.00 99 1014.4
20260905055258 22 125 0.0 0.0 0.00 0.00 0.00 99 1014.1
20260905054753 22 125 0.0 0.0 0.00 0.00 0.00 99 1014.5
20260905054250 22 116 0.0 0.0 0.00 0.00 0.00 99 1014.6
20260905053749 23 75 0.0 0.0 0.00 0.00 0.00 99 1014.3
20260905053244 23 128 0.0 0.0 0.00 0.00 0.00 99 1014.3
20260905052743 23 120 0.0 0.0 0.00 0.00 0.00 99 1014.4
20260905052238 23 117 0.0 0.0 0.00 0.00 0.00 99 1014.5
20260905051738 23 121 0.0 0.0 0.00 0.00 0.00 99 1014.3
20260905051235 23 121 0.0 0.0 0.00 0.00 0.00 99 1014.3
20260905050731 23 121 0.0 0.0 0.00 0.00 0.00 99 1014.5
20260905050228 23 121 0.0 0.0 0.00 0.00 0.00 99 1014.3
20260905045727 23 121 0.0 0.0 0.00 0.00 0.00 99 1014.4
20260905045222 23 121 0.0 0.0 0.00 0.00 0.00 99 1014.5
20260905044718 23 121 0.0 0.0 0.00 0.00 0.00 99 1014.3
20260905044214 23 121 0.0 0.0 0.00 0.00 0.00 98 1014.4
20260905043712 23 121 0.0 0.0 0.00 0.00 0.00 98 1014.5
20260905043207 24 115 0.0 1.6 0.00 0.00 0.00 99 1014.1
20260905042707 23 97 1.6 1.6 0.00 0.00 0.00 98 1014.6
20260905042206 23 125 0.0 0.0 0.00 0.00 0.00 95 1014.4
20260905041702 24 127 0.0 0.0 0.00 0.00 0.00 95 1014.3
20260905041157 24 131 0.0 0.0 0.00 0.00 0.00 94 1014.2
20260905040652 24 125 0.0 0.0 0.00 0.00 0.00 95 1014.5